Starlink 11082

operational
NORAD ID: 59711 Int'l Des: 2024-088 Owner: SPXS Country: US Constellation: starlink
LEOCIRCULAR

Über Starlink 11082

Beschreibung wird geladen...

Live-Position

3D-Globus wird geladen...

Nächste Überflüge

Höhenverlauf

Altitude vs Time

uPlot chart will show altitude changes over time

Zweizeiliger Elementsatz

1 59711U 24088D 25350.30854404 .00000517 00000-0 91275-5 0 9990
2 59711 53.1584 17.5078 0001241 89.2095 270.9065 15.69714440 93170
Epoch: 16. Dez. 2025 • Age: 19 hours

Aktueller Status

Höhe 361.4 km
Geschwindigkeit 7.69 km/s
Subsatellitenpunkt -4.75°S, 73.2°E
Startdatum 10. Mai 2024
Alter 1.6 years
Typ internet

Technische Details

Klassifizierung Payload
Masse 960.00 kg
Trockenmasse 910.00 kg
Gesamtmasse 960.00 kg
Länge 0.30 m
Durchmesser 4.10 m
Spannweite 29.00 m
Form Box + pan
Hersteller SPXS
Bus-Typ Starlink V2MD
Phasenstatus In Orbit
Besitzer/Staat SPXS/US

Große Konstellationen

Loading constellations...